Location: Assche-ter-Heiden
(50.9174°N, 4.1574°E)
Time: 15:57:47
(UTC+00:00)

CENTAUR R/B - Pass Details

Date: 20 January 2020
Orbit: 766 x 1422 km, 63.5° (Epoch: 07 February)

Event Time Altitude Azimuth Distance (km) Brightness Sun altitude
Exits shadow 04:30:11 34° 332° (NNW) 1,952 3.8 -28.7°
Maximum altitude 04:33:44 59° 36° (NE) 1,497 3.5 -28.2°
Drops below altitude 10° 04:42:13 10° 115° (ESE) 3,483 6.2 -26.8°
Sets 04:45:18 0° 119° (ESE) 4,483 6.9 -26.3°
